This demonstration page uses our WeatherBlox Daily Observations layout. Learn more.

Left ArrowRight Arrow

39.92423, -83.80882

Hourly Observations for August 3, 2016

Temp ( °F °C ) Dew Point ( °F °C ) Humidity (%) Winds ( mph kmh ) Pressure ( in mb ) Visibility ( mi km ) Precip ( " mm )
12:56 am 00:56 Clear 68 20 63 17.2 84 84 N N/A 30.06 1018 10 16 N/A
1:56 am 01:56 Clear 67 19.4 64 17.8 91 91 NW 3 6 30.06 1018 10 16 N/A
2:56 am 02:56 Mostly Clear 67 19.4 64 17.8 91 91 NE 3 6 30.04 1017 10 16 N/A
3:56 am 03:56 Clear 66 18.9 64 17.8 93 93 N N/A 30.05 1018 10 16 N/A
4:56 am 04:56 Clear 66 18.9 64 17.8 93 93 N N/A 30.04 1017 10 16 N/A
5:56 am 05:56 Clear with Mist and Fog 64 17.8 64 17.8 100 100 N N/A 30.05 1018 5 8 N/A
6:56 am 06:56 Mostly Cloudy with Mist and Fog 64 17.8 64 17.8 100 100 N N/A 30.06 1018 5 8 N/A
7:56 am 07:56 Sunny 69 20.6 66 18.9 90 90 N N/A 30.06 1018 10 16 N/A
8:56 am 08:56 Sunny 74 23.3 68 20 82 82 ENE 6 9 30.07 1018 10 16 N/A
9:56 am 09:56 Mostly Cloudy 78 25.6 68 20 71 71 E 6 9 N/A 10 16 N/A
10:56 am 10:56 Sunny 82 27.8 67 19.4 60 60 E 5 7 30.07 1018 10 16 N/A
11:56 am 11:56 Partly Cloudy 84 28.9 67 19.4 57 57 E 5 7 30.07 1018 10 16 N/A
12:56 pm 12:56 Sunny 86 30 66 18.9 51 51 SE 9 15 30.06 1018 10 16 N/A
1:56 pm 13:56 Partly Cloudy 87 30.6 67 19.4 51 51 SSE 8 13 30.05 1018 7 11 N/A
2:56 pm 14:56 Mostly Sunny 87 30.6 66 18.9 50 50 ESE 6 9 30.04 1017 10 16 N/A
3:56 pm 15:56 Hazy 87 30.6 66 18.9 50 50 SSE 5 7 30.03 1017 5 8 N/A
4:56 pm 16:56 Sunny 87 30.6 65 18.3 48 48 SSE 5 7 30.01 1016 10 16 N/A
5:56 pm 17:56 Sunny 86 30 66 18.9 51 51 S 3 6 N/A 10 16 N/A
6:56 pm 18:56 Sunny 85 29.4 68 20 57 57 SSE 3 6 30.01 1016 10 16 N/A
7:56 pm 19:56 Sunny 82 27.8 68 20 63 63 undefined N/A 30.00 1016 10 16 N/A
8:56 pm 20:56 Clear 79 26.1 66 18.9 65 65 N N/A 30.00 1016 10 16 N/A
9:56 pm 21:56 Clear 75 23.9 69 20.6 82 82 N N/A 30.01 1016 10 16 N/A
10:56 pm 22:56 Clear 72 22.2 66 18.9 82 82 ESE 3 6 30.01 1016 10 16 N/A
11:56 pm 23:56 Clear 69 20.6 66 18.9 90 90 E 3 6 30.01 1016 10 16 N/A

Powered by AerisWeather